Weather History for Naples, Italy

Change the Weather History Date:

Wednesday, September 12, 2012

  Actual Average Record
Temperature  
Mean Temperature 74 °F -  
Max Temperature 80 °F 76 °F 86 °F (2006)
Min Temperature 69 °F 57 °F 53 °F (2001)
Cooling Degree Days 10    
Growing Degree Days 24 (Base 50)    
Moisture  
Dew Point 67 °F    
Average Humidity 76    
Maximum Humidity 88    
Minimum Humidity 61    
Precipitation  
Precipitation 0.00 in 0.13 in - ()
Sea Level Pressure  
Sea Level Pressure 29.93 in    
Wind  
Wind Speed 3 mph ()    
Max Wind Speed 10 mph    
Max Gust Speed -    
Visibility 5.3 miles    
Events      
Averages and records for this station are not official NWS values.
T = Trace of Precipitation, MM = Missing Value Source: Averaged Metar Reports

Daily Weather History Graph

Daily Weather History Graph

Search for Another Location

Airport:

Trip Planner

Search our weather history database for the weather conditions in past years. The results will help you decide how hot, cold, wet, or windy it might be!

Date:

Astronomy

Sep. 12, 2012 Rise Set
Actual Time 6:40 AM CEST 7:16 PM CEST
Civil Twilight 6:13 AM CEST 7:44 PM CEST
Nautical Twilight 5:40 AM CEST 8:16 PM CEST
Astronomical Twilight 5:06 AM CEST 8:50 PM CEST
Moon 2:38 AM CEST (9/12) 4:54 PM CEST (9/12)
Length of Visible Light 13h 31m
Length of Day
12h 35m
Waning Crescent, 15% of the Moon is Illuminated
Sep 12
Waning Crescent
Sep 16
New
Sep 22
First Quarter
Sep 30
Full
Oct 8
Last Quarter

Hourly Weather History & Observations

Time (CEST) Temp. Heat Index Dew Point Humidity Pressure Visibility Wind Dir Wind Speed Gust Speed Precip Events Conditions
12:20 AM 71.6 °F - 68.0 °F 88% 30.04 in 5.0 mi NW 1.2 mph - N/A   Unknown
12:50 AM 71.6 °F - 68.0 °F 88% 30.01 in 5.0 mi West 1.2 mph - N/A   Unknown
1:20 AM 71.6 °F - 68.0 °F 88% 30.01 in 5.0 mi Calm Calm - N/A   Unknown
1:50 AM 71.6 °F - 68.0 °F 88% 30.01 in 5.0 mi East 2.3 mph - N/A   Unknown
2:20 AM 71.6 °F - 68.0 °F 88% 30.01 in 5.0 mi Variable 2.3 mph - N/A   Unknown
2:50 AM 69.8 °F - 66.2 °F 88% 30.01 in 3.7 mi Calm Calm - N/A   Unknown
3:20 AM 71.6 °F - 66.2 °F 83% 30.01 in 3.1 mi WSW 2.3 mph - N/A   Mist
3:50 AM 71.6 °F - 68.0 °F 88% 29.98 in 3.1 mi Calm Calm - N/A   Mist
4:20 AM 71.6 °F - 66.2 °F 83% 29.98 in 3.1 mi Calm Calm - N/A   Mist
4:50 AM 71.6 °F - 68.0 °F 88% 29.98 in 3.1 mi Calm Calm - N/A   Mist
6:20 AM 69.8 °F - 66.2 °F 88% 29.98 in 3.1 mi Calm Calm - N/A   Mist
6:50 AM 69.8 °F - 66.2 °F 88% 29.98 in 3.1 mi Variable 2.3 mph - N/A   Partly Cloudy
7:20 AM 71.6 °F - 68.0 °F 88% 29.98 in 3.1 mi Calm Calm - N/A   Partly Cloudy
7:50 AM 73.4 °F - 68.0 °F 83% 29.98 in 3.7 mi Calm Calm - N/A   Partly Cloudy
8:20 AM 73.4 °F - 68.0 °F 83% 29.98 in 4.3 mi Variable 2.3 mph - N/A   Scattered Clouds
8:50 AM 75.2 °F - 69.8 °F 83% 29.98 in 4.3 mi Variable 2.3 mph - N/A   Scattered Clouds
9:20 AM 77.0 °F - 69.8 °F 78% 29.98 in 4.3 mi South 5.8 mph - N/A   Scattered Clouds
9:50 AM 77.0 °F - 69.8 °F 78% 29.98 in 4.3 mi South 6.9 mph - N/A   Scattered Clouds
10:20 AM 78.8 °F - 69.8 °F 74% 29.98 in 6.2 mi South 6.9 mph - N/A   Scattered Clouds
10:50 AM 78.8 °F - 69.8 °F 74% 29.98 in 6.2 mi South 6.9 mph - N/A   Scattered Clouds
11:20 AM 78.8 °F - 68.0 °F 69% 29.95 in 6.2 mi South 9.2 mph - N/A   Scattered Clouds
11:50 AM 80.6 °F 83.2 °F 68.0 °F 65% 29.95 in - North - - N/A   Scattered Clouds
12:00 PM 80.6 °F 83.2 °F 68.0 °F 65% 29.95 in - North - - N/A   Scattered Clouds
12:20 PM 78.8 °F - 68.0 °F 69% 29.95 in 6.2 mi SSW 10.4 mph - N/A   Partly Cloudy
12:50 PM 80.6 °F 82.7 °F 66.2 °F 61% 29.95 in 6.2 mi SSW 10.4 mph - N/A   Partly Cloudy
1:20 PM 80.6 °F 83.9 °F 69.8 °F 70% 29.92 in 6.2 mi South 10.4 mph - N/A   Partly Cloudy
1:50 PM 80.6 °F 83.2 °F 68.0 °F 65% 29.92 in 6.2 mi SSW 10.4 mph - N/A   Partly Cloudy
2:20 PM 80.6 °F 83.2 °F 68.0 °F 65% 29.92 in 6.2 mi SSW 10.4 mph - N/A   Scattered Clouds
2:50 PM 78.8 °F - 68.0 °F 69% 29.89 in 6.2 mi South 10.4 mph - N/A   Partly Cloudy
3:20 PM 80.6 °F 82.7 °F 66.2 °F 61% 29.89 in 6.2 mi South 9.2 mph - N/A   Partly Cloudy
3:50 PM 78.8 °F - 66.2 °F 65% 29.89 in 6.2 mi South 10.4 mph - N/A   Partly Cloudy
4:20 PM 80.6 °F 83.2 °F 68.0 °F 65% 29.89 in 6.2 mi South 10.4 mph - N/A   Scattered Clouds
4:50 PM 80.6 °F 82.7 °F 66.2 °F 61% 29.89 in 6.2 mi South 9.2 mph - N/A   Scattered Clouds
5:20 PM 78.8 °F - 68.0 °F 69% 29.86 in 6.2 mi South 8.1 mph - N/A   Scattered Clouds
5:50 PM 78.8 °F - 68.0 °F 69% 29.86 in 6.2 mi SSW 6.9 mph - N/A   Partly Cloudy
6:20 PM 77.0 °F - 68.0 °F 74% 29.86 in 6.2 mi SSW 5.8 mph - N/A   Partly Cloudy
6:50 PM 77.0 °F - 66.2 °F 69% 29.86 in 6.2 mi WSW 8.1 mph - N/A   Partly Cloudy
7:20 PM 75.2 °F - 66.2 °F 73% 29.86 in 6.2 mi WSW 8.1 mph - N/A   Partly Cloudy
7:50 PM 75.2 °F - 66.2 °F 73% 29.86 in 6.2 mi West 4.6 mph - N/A   Partly Cloudy
8:20 PM 75.2 °F - 66.2 °F 73% 29.86 in 6.2 mi WSW 4.6 mph - N/A   Partly Cloudy
8:50 PM 73.4 °F - 66.2 °F 78% 29.86 in 6.2 mi West 5.8 mph - N/A   Partly Cloudy
9:20 PM 73.4 °F - 66.2 °F 78% 29.86 in 6.2 mi West 3.5 mph - N/A   Partly Cloudy
9:50 PM 73.4 °F - 66.2 °F 78% 29.83 in 6.2 mi SSE 2.3 mph - N/A   Partly Cloudy
10:20 PM 73.4 °F - 66.2 °F 78% 29.83 in - South 2.3 mph - N/A   Clear
10:50 PM 73.4 °F - 66.2 °F 78% 29.83 in - SSW 2.3 mph - N/A   Clear
11:20 PM 75.2 °F - 66.2 °F 73% 29.83 in 6.2 mi South 2.3 mph - N/A   Partly Cloudy
11:50 PM 73.4 °F - 66.2 °F 78% 29.80 in 6.2 mi Variable 2.3 mph - N/A   Partly Cloudy